TimeCDT,TemperatureF,Dew PointF,Humidity,Sea Level PressureIn,VisibilityMPH,Wind Direction,Wind SpeedMPH,Gust SpeedMPH,PrecipitationIn,Events,Conditions,WindDirDegrees,DateUTC
12:53 AM,62.1,53.1,72,30.22,10.0,SW,4.6,-,N/A,,Clear,220,2013-05-14 05:53:00
1:53 AM,62.1,55.0,78,30.21,10.0,Calm,Calm,-,N/A,,Clear,0,2013-05-14 06:53:00
2:53 AM,61.0,55.0,81,30.20,10.0,Calm,Calm,-,N/A,,Clear,0,2013-05-14 07:53:00
3:53 AM,57.9,55.0,90,30.19,10.0,Calm,Calm,-,N/A,,Clear,0,2013-05-14 08:53:00
4:53 AM,54.0,53.1,97,30.19,10.0,Calm,Calm,-,N/A,,Clear,0,2013-05-14 09:53:00
5:53 AM,60.1,57.0,90,30.20,10.0,SSW,4.6,-,N/A,,Clear,210,2013-05-14 10:53:00
6:53 AM,60.1,57.9,93,30.22,10.0,SSW,4.6,-,N/A,,Clear,210,2013-05-14 11:53:00
7:53 AM,64.0,60.1,87,30.23,10.0,SSW,3.5,-,N/A,,Clear,210,2013-05-14 12:53:00
8:53 AM,68.0,61.0,78,30.25,10.0,SW,8.1,-,N/A,,Clear,220,2013-05-14 13:53:00
9:53 AM,73.9,55.9,53,30.25,10.0,SSW,6.9,-,N/A,,Clear,200,2013-05-14 14:53:00
10:53 AM,78.1,53.1,42,30.25,10.0,South,6.9,-,N/A,,Clear,180,2013-05-14 15:53:00
11:53 AM,80.1,46.9,31,30.25,10.0,SSW,8.1,-,N/A,,Clear,210,2013-05-14 16:53:00
12:53 PM,82.0,50.0,33,30.22,10.0,Variable,6.9,-,N/A,,Clear,0,2013-05-14 17:53:00
1:53 PM,82.9,51.1,33,30.19,10.0,South,6.9,-,N/A,,Clear,170,2013-05-14 18:53:00
2:53 PM,84.9,51.1,31,30.17,10.0,South,8.1,-,N/A,,Clear,190,2013-05-14 19:53:00
3:53 PM,84.9,51.1,31,30.15,10.0,South,8.1,-,N/A,,Clear,180,2013-05-14 20:53:00
4:53 PM,84.0,52.0,33,30.14,10.0,South,8.1,-,N/A,,Clear,170,2013-05-14 21:53:00
5:53 PM,84.0,53.1,34,30.13,10.0,South,8.1,-,N/A,,Clear,180,2013-05-14 22:53:00
6:53 PM,80.1,53.1,39,30.12,10.0,SSE,6.9,-,N/A,,Clear,160,2013-05-14 23:53:00
7:53 PM,75.9,51.1,42,30.13,10.0,South,8.1,-,N/A,,Clear,170,2013-05-15 00:53:00
8:53 PM,73.0,50.0,44,30.14,10.0,South,6.9,-,N/A,,Clear,180,2013-05-15 01:53:00
9:53 PM,70.0,53.1,55,30.15,10.0,South,5.8,-,N/A,,Clear,180,2013-05-15 02:53:00
10:53 PM,66.9,53.1,61,30.16,10.0,South,4.6,-,N/A,,Clear,180,2013-05-15 03:53:00
11:53 PM,64.9,55.0,70,30.16,10.0,South,3.5,-,N/A,,Clear,180,2013-05-15 04:53:00